Regional Weather Roundup
Issued by NWS

Home | Current Version | Previous Version | Graphics & Text | Print | Product List | Glossary On
Versions: 1 2 3 4 5 6 7 8 9 10 11 12 13 14 15 16 17 18 19 20 21 22 23 24 25 26 27
000
ASUS45 KTFX 250110
RWRMT
MONTANA REGIONAL WEATHER ROUNDUP
NATIONAL WEATHER SERVICE GREAT FALLS MT
700 PM MDT FRI MAR 24 2017

NOTE: "FAIR" INDICATES FEW OR NO CLOUDS BELOW 12000 FEET WITH NO
SIGNIFICANT WEATHER AND/OR OBSTRUCTIONS TO VISIBILITY.

MTZ001>007-043-250200-
WEST OF THE DIVIDE

CITY           SKY/WX    TMP DP  RH WIND       PRES   REMARKS
KALISPELL      LGT RAIN  41  36  82 CALM      29.82R
MISSOULA       CLOUDY    51  36  56 W10       29.87R
BUTTE          CLOUDY    51  24  34 S18G26    29.86R
MULLAN PASS    SNOW      30  30 100 SW8       29.82R VSB 1/4 WCI  22
ANACONDA         N/A     50  28  43 S17G28      N/A
DEER LODGE       N/A     54  28  37 S13G21    29.83R
EUREKA           N/A     43  37  81 SE8       29.79S
HAMILTON         N/A     52  36  54 S9        29.86R
PLAINS           N/A     51  35  54 SW10      29.87R
RONAN            N/A     46  35  65 N2        29.89R
$$

MTZ008-052>055-250200-
SOUTHWEST MONTANA

CITY           SKY/WX    TMP DP  RH WIND       PRES   REMARKS
BOZEMAN        CLOUDY    57  20  23 SW7       29.84R
DILLON         CLOUDY    51  23  33 S22G32    29.87R
W YELLOWSTONE  CLOUDY    41  21  45 SW16G33   30.02F
ENNIS          MOCLDY    50  19  29 S33G40    29.94F
THREE FORKS      N/A     56  56 100 S24       29.84R
TWIN BRIDGES     N/A     54  20  26 SE21      29.88R
$$

MTZ009-010-012-014-046-048-049-054-250200-
EAST SLOPES AND CENTRAL MONTANA

CITY           SKY/WX    TMP DP  RH WIND       PRES   REMARKS
CUT BANK       CLOUDY    48  28  46 W24       29.71R
GREAT FALLS    CLOUDY    60  18  19 S21G29    29.70R
MALMSTROM AFB  CLOUDY    61  20  20 S22G36    29.70S
HELENA         CLOUDY    60  23  24 S17G25    29.76R
AUGUSTA          N/A     55  23  29 W14       29.73R
BOWMANS CRNR     N/A     56  22  27 W29       29.71R
CHOTEAU          N/A     59  23  25 SW17      29.73R
CONRAD           N/A     59  36  42 SW9       29.75S
FAIRFIELD        N/A     58  22  25 W17G25    29.70R
POWER          MOCLDY    58  21  23 SW13      29.69S
RAYNESFORD       N/A     59  18  20 SW7       29.73S
$$

MTZ011-013-016-021-045-047-050-051-250200-
NORTH CENTRAL MONTANA

CITY           SKY/WX    TMP DP  RH WIND       PRES   REMARKS
HAVRE          CLOUDY    60  28  29 SE5       29.67F
LEWISTOWN      CLOUDY    59  25  27 S14G20    29.75F
N BAR RANCH      N/A     57  25  28 S18G28    29.82F
CHINOOK          N/A     63  21  20 SE3       29.69F
DENTON           N/A     59  23  25 S15       29.68F
FORT BENTON      N/A     64  19  17 N5        29.69S
GEYSER         MOCLDY    59  16  18 S22G29    29.72S
GRASS RANGE      N/A     59  25  27 S16       29.73F
STANFORD         N/A     58  15  19 SW21      29.75R
WINIFRED         N/A     59  25  27 S13       29.72F
$$

MTZ017>020-022>027-061-062-250200-
NORTHEAST MONTANA

CITY           SKY/WX    TMP DP  RH WIND       PRES   REMARKS
GLASGOW        PTCLDY    55  30  38 SE13      29.82F
JORDAN           N/A     60  29  30 SE14      29.82F
SIDNEY         PTCLDY    56  33  42 S7        29.92F
WOLF POINT     PTCLDY    61  27  27 SE7       29.86F
MALTA          CLEAR     59  36  41 SE9       29.75F
PLENTYWOOD       N/A     50  37  62 SE12G18   29.92F
POPLAR           N/A     57  28  33 SE10      29.89S
SCOBEY           N/A     54  29  38 E10       29.87F
$$

MTZ028>42-056>058-250200-
SOUTHCENTRAL AND SOUTHEAST MONTANA

CITY           SKY/WX    TMP DP  RH WIND       PRES   REMARKS
BAKER          CLEAR     54  33  45 SE15      29.97F
BILLINGS       PTCLDY    62  26  25 S10       29.81F
LIVINGSTON     CLOUDY    56  16  20 SW28G45   29.81F
MILES CITY     CLEAR     60  29  30 SE16      29.88F
BIG TIMBER     CLEAR     55  19  24 W17       29.84S
FORSYTH          N/A     61  30  31 SE10      29.85F
HARLOWTON      MOCLDY    57  19  23 S17G26    29.77F
LAUREL           N/A     62  26  25 S13       29.82R
$$

REGIONAL REPORTS...DAKOTAS

CITY           SKY/WX    TMP DP  RH WIND       PRES   REMARKS
WILLISTON      CLOUDY    48  32  53 E20G28    29.96F
MINOT          CLOUDY    34  28  79 E12       30.12S WCI  25
DICKINSON      CLEAR     48  33  56 SE18      30.01R
BEACH            N/A    N/A N/A N/A MISG        N/A
TIOGA            N/A     39  39 100 E13       30.04S WCI  32
WATFORD CITY     N/A     48  36  61 SE17      29.98S
BISMARCK       CLEAR     40  34  79 E14       30.14S
GRAND FORKS    MOCLDY    34  28  79 N7        30.22S WCI  28
FARGO          CLEAR     34  30  85 N8        30.20R WCI  27
BUFFALO SD       N/A     54  33  45 SE14      29.94S
RAPID CITY     CLEAR     52  30  43 SE9       30.04F
$$

REGIONAL REPORTS...WYOMING/IDAHO/WASHINGTON

CITY           SKY/WX    TMP DP  RH WIND       PRES   REMARKS
GILLETTE         N/A     55  28  35 MISG      29.97F
SHERIDAN       CLEAR     59  29  31 SE12      29.87F
BUFFALO WY     CLEAR     56  26  31 S23G29    29.91F
CODY           CLEAR     59  15  18 VRB5      29.91F
YELLOWSTONE LA   N/A     39  17  41 VRB3      30.06S
IDAHO FALLS    CLOUDY    53  26  35 S21       30.01S
SALMON         CLOUDY    52  30  43 SW13      29.89S
BOISE          CLOUDY    49  42  77 SE10      29.97F
SPOKANE        LGT RAIN  45  41  86 SW16G24   29.83S
$$

REGIONAL REPORTS...ALBERTA

CITY           SKY/WX    TMP DP  RH WIND       PRES   REMARKS
EDMONTON       MOCLDY    36  30  80 E13       29.67F WCI  27
CALGARY        CLOUDY    50  21  32 NW9       29.59S
LETHBRIDGE     CLOUDY    52  28  40 SW23      29.67S
MEDICINE HAT   CLOUDY    55  28  35 SE5       29.66F
WATERTON GATE    N/A     39  32  75 SW22G36     N/A  WCI  29
CARDSTON         N/A     46  28  49 W7          N/A
MILK RIVER       N/A     54  28  37 W21G28      N/A
ONEFOUR          N/A     54  27  35 E9          N/A
$$

REGIONAL REPORTS...SASKATCHEWAN

CITY           SKY/WX    TMP DP  RH WIND       PRES   REMARKS
SWIFT CURRENT  CLOUDY    48  32  53 SE10      29.75F
REGINA         CLOUDY    36  32  87 SE25G33   29.93F WCI  23
SASKATOON      CLOUDY    39  30  70 E15G24    29.89F WCI  31
CYPRESS HILLS    N/A     48  21  34 S8          N/A
ROCKGLEN         N/A     52  28  40 S10         N/A
$$




USA.gov is the U.S. government's official web portal to all federal, state and local government web resources and services.